Retour au catalogue

CZ-4 DEB

ActifPO
NORAD 26220·DEBRIS·🇨🇳 China

Lancé Oct 14, 1999 depuis Taiyuan Satellite Launch Center

Loading…

Prochains Passages (prochaines 24 heures)

TLE

FraisSource: Space-Track

Époque: Sep 14, 2026, 08:29 UTC

1 26220U 99057DJ  26257.35415383  .00000509  00000-0  76662-4 0  9991
2 26220  98.6627  22.4014 0068364  14.8557   6.3150 14.77923879423249

Suivez CZ-4 DEB en temps réel avec AllMySat

Download on the App Store